[[{"header":{"parameterUnit":"m.s-1","parameterCategory":2,"la1":30.2992,"la2":30.254,"lo1":-89.0895,"lo2":-89.0443,"dy":0.0025,"dx":0.0025,"nx":19,"ny":19,"refTime":"2026-05-17T09:00:00:Z","depth":"0","parameterNumber":2,"parameterNumberName":"U-component_of_CURRENTS"},"data":[0,0,0,0.0855,0.0856,0.0895,0.0896,0.0938,0.0938,0,0,0,0,0,0,0,0,0,0,0,0.0838,0.0838,0.0855,0.0856,0.0895,0.0896,0.0938,0.0938,0,0,0,0,0,0,0,0,0,0,0,0.0838,0.0838,0.0838,0.0856,0.0895,0.0896,0.0938,0.091,0,0,0,0,0,0,0,0,0,0,0.0873,0.0854,0.0838,0.0838,0.0857,0.0895,0.0896,0.0909,0.0912,0.0918,0,0.0922,0,0.0933,0.0941,0.0941,0,0,0,0.0856,0.0852,0.0867,0.0839,0.0857,0.0895,0.0878,0.0911,0.0914,0.0922,0.0923,0.0925,0.0934,0.0941,0.0941,0.0959,0.0959,0,0,0.0854,0.0842,0.0865,0.0869,0.0865,0.0876,0.0879,0.0913,0.0912,0.0923,0.0926,0.0934,0.0942,0.0942,0.0959,0.0959,0,0,0,0.0848,0.084,0.0855,0.0867,0.0876,0.0878,0.088,0.0911,0.0917,0.0927,0.0935,0.0942,0.0942,0.096,0.0959,0.0952,0,0,0,0.0846,0.0837,0.0853,0.0846,0.0875,0.0894,0.0878,0.0914,0.0919,0.0935,0.0942,0.0943,0.096,0.0959,0.0952,0.0979,0,0,0,0.0837,0.0836,0.084,0.0845,0.0863,0.0894,0.0902,0.0916,0.0924,0.0941,0.0943,0.096,0.0959,0.0952,0.0979,0.1113,0,0,0,0.0822,0.0816,0.084,0.0836,0.0863,0.0876,0.0902,0.0913,0.0925,0.0942,0.096,0.0959,0.0953,0.0978,0.1111,0.1267,0.1291,0,0,0.0804,0.0814,0.0811,0.0834,0.0836,0.0871,0.0881,0.0908,0.0924,0.0948,0.0949,0.0952,0.0979,0.1113,0.1252,0.1278,0,0,0,0.0799,0.0796,0.0801,0.081,0.0831,0.0865,0.0887,0.0903,0.0928,0.0931,0.0949,0.0967,0.1053,0.114,0.1159,0.1271,0.0958,0.0958,0.0958,0.0751,0.0769,0.0772,0.0798,0.0812,0.0856,0.0885,0.0914,0.0916,0.0924,0.0957,0.1049,0.1137,0.1154,0.1264,0.0937,0.0937,0.0937,0.0937,0.0731,0.0747,0.0766,0.0778,0.0818,0.0837,0.0894,0.091,0.0997,0.0949,0.1033,0.1121,0.1176,0.1285,0.0936,0.0936,0.0936,0.0937,0.0937,0.072,0.0736,0.0744,0.0778,0.0814,0.0857,0.0962,0.0989,0.1024,0.1074,0.1273,0.1275,0.1386,0.1154,0.1155,0.1155,0.1156,0.1156,0.1157,0.0723,0.0734,0.0762,0.0794,0.0827,0.091,0.1026,0.1126,0.1288,0.1316,0.1318,0.144,0.1118,0.1126,0.1167,0.1165,0.1164,0.1163,0.1162,0.0736,0.0751,0.0791,0.0823,0.0905,0.1001,0.1131,0.1406,0.1538,0.1656,0.1749,0.1473,0.1524,0.1509,0.1528,0.1671,0.1671,0.1671,0.1671,0.0754,0.0761,0.082,0.0869,0.0954,0.1042,0.1282,0.1534,0.1853,0.2008,0.2017,0.1973,0.1947,0.2018,0.1991,0.2018,0.2282,0.2283,0.2284,0.0775,0.0794,0.0829,0.087,0.0952,0.1086,0.1279,0.1566,0.208,0.2312,0.2145,0.2119,0.2045,0.1996,0.2092,0.2046,0.2082,0,0]},{"header":{"parameterUnit":"m.s-1","parameterCategory":2,"la1":30.2992,"la2":30.254,"lo1":-89.0895,"lo2":-89.0443,"dy":0.0025,"dx":0.0025,"nx":19,"ny":19,"refTime":"2026-05-17T09:00:00:Z","depth":"0","parameterNumber":3,"parameterNumberName":"V-component_of_CURRENTS"},"data":[0,0,0,-0.0212,-0.0213,-0.0252,-0.0253,-0.0312,-0.0313,0,0,0,0,0,0,0,0,0,0,0,-0.0198,-0.0198,-0.0212,-0.0213,-0.0252,-0.0253,-0.0312,-0.0313,0,0,0,0,0,0,0,0,0,0,0,-0.0197,-0.0198,-0.0198,-0.0213,-0.0252,-0.0253,-0.0312,-0.0281,0,0,0,0,0,0,0,0,0,0,-0.0241,-0.0225,-0.0198,-0.0198,-0.0213,-0.0252,-0.0253,-0.0279,-0.0283,-0.0295,0,-0.0299,0,-0.0306,-0.0317,-0.0317,0,0,0,-0.0217,-0.0222,-0.0233,-0.0198,-0.0213,-0.0252,-0.0236,-0.0281,-0.0285,-0.03,-0.03,-0.0302,-0.0307,-0.0317,-0.0317,-0.0365,-0.0365,0,0,-0.0215,-0.0206,-0.023,-0.0235,-0.0221,-0.0234,-0.0237,-0.0283,-0.0286,-0.03,-0.0304,-0.0308,-0.0317,-0.0318,-0.0365,-0.0365,0,0,0,-0.0205,-0.0204,-0.0214,-0.0233,-0.0239,-0.0235,-0.0238,-0.0284,-0.0288,-0.0304,-0.0309,-0.0318,-0.0318,-0.0365,-0.0365,-0.0345,0,0,0,-0.0204,-0.0199,-0.0213,-0.0209,-0.0238,-0.0261,-0.0238,-0.0284,-0.029,-0.0309,-0.0318,-0.0319,-0.0364,-0.0365,-0.0345,-0.0275,0,0,0,-0.0196,-0.0198,-0.0202,-0.0208,-0.0224,-0.026,-0.0266,-0.0286,-0.0293,-0.0317,-0.0319,-0.0364,-0.0365,-0.0345,-0.0278,-0.0154,0,0,0,-0.0188,-0.0192,-0.0202,-0.0208,-0.0223,-0.0246,-0.0266,-0.0286,-0.0305,-0.0318,-0.0364,-0.0365,-0.0345,-0.0279,-0.0158,0.0013,0.0043,0,0,-0.0187,-0.0191,-0.0195,-0.0205,-0.022,-0.0241,-0.0264,-0.0295,-0.0314,-0.035,-0.0351,-0.0345,-0.0278,-0.0155,-0.0,0.0031,0,0,0,-0.0192,-0.0194,-0.02,-0.0212,-0.023,-0.0237,-0.028,-0.0301,-0.0332,-0.0325,-0.0355,-0.0312,-0.0235,-0.0141,-0.0117,-0.0232,-0.0366,-0.0366,-0.0366,-0.0176,-0.0189,-0.0192,-0.0208,-0.0219,-0.0247,-0.0253,-0.0288,-0.0331,-0.0343,-0.0307,-0.0208,-0.0113,-0.0092,-0.0216,-0.0351,-0.0351,-0.0351,-0.0351,-0.0165,-0.0159,-0.0176,-0.0181,-0.019,-0.0204,-0.0231,-0.0254,-0.0227,-0.0302,-0.0229,-0.0139,-0.0063,-0.0206,-0.035,-0.035,-0.035,-0.035,-0.0351,-0.0143,-0.0139,-0.0148,-0.0145,-0.013,-0.0145,-0.0035,-0.0093,-0.0149,-0.0108,0.0066,0.0068,-0.0037,-0.0052,-0.0051,-0.005,-0.0049,-0.0049,-0.0048,-0.0105,-0.0116,-0.0093,-0.0091,-0.0053,0.0038,0.01,0.0175,0.022,0.0162,0.0164,-0.0009,-0.0113,-0.0102,-0.0036,-0.0038,-0.0039,-0.0041,-0.0041,-0.006,-0.0064,-0.0023,0.0014,0.0142,0.0352,0.0402,0.061,0.0634,0.0692,0.0333,0.0315,0.0359,0.034,0.0363,0.0548,0.0548,0.0548,0.0548,-0.0015,-0.0021,0.0068,0.017,0.0345,0.051,0.0876,0.099,0.0815,0.0675,0.0502,0.04,0.0382,0.0417,0.0396,0.0416,0.0609,0.0608,0.0608,0.0033,0.005,0.0143,0.0234,0.0441,0.0745,0.1102,0.1255,0.0918,0.0587,0.0305,0.0302,0.0116,0.0097,0.0116,0.0096,0.0115,0,0]}],[{"header":{"parameterUnit":"m.s-1","parameterCategory":2,"la1":30.2992,"la2":30.254,"lo1":-89.0895,"lo2":-89.0443,"dy":0.0025,"dx":0.0025,"nx":19,"ny":19,"refTime":"2026-05-17T09:00:00:Z","depth":"2","parameterNumber":2,"parameterNumberName":"U-component_of_CURRENTS"},"data":[0,0,0,0.0944,0.0945,0.0983,0.0984,0.1028,0.1028,0,0,0,0,0,0,0,0,0,0,0,0.0928,0.0928,0.0944,0.0945,0.0983,0.0984,0.1027,0.1028,0,0,0,0,0,0,0,0,0,0,0,0.0927,0.0928,0.0928,0.0945,0.0983,0.0984,0.1027,0.1,0,0,0,0,0,0,0,0,0,0,0.0963,0.0944,0.0928,0.0928,0.0946,0.0983,0.0984,0.0998,0.1001,0.1009,0,0.1013,0,0.1023,0.1031,0.1031,0,0,0,0.0945,0.0942,0.0957,0.0928,0.0946,0.0983,0.0966,0.1,0.1004,0.1013,0.1014,0.1016,0.1024,0.1031,0.1031,0.1054,0.1053,0,0,0.0943,0.0931,0.0955,0.0959,0.0954,0.0965,0.0967,0.1002,0.1002,0.1014,0.1017,0.1025,0.1031,0.1032,0.1054,0.1054,0,0,0,0.0937,0.0929,0.0944,0.0957,0.0965,0.0966,0.0969,0.1,0.1006,0.1017,0.1025,0.1032,0.1032,0.1054,0.1054,0.1043,0,0,0,0.0936,0.0926,0.0943,0.0935,0.0965,0.0983,0.0966,0.1004,0.1008,0.1025,0.1032,0.1032,0.1054,0.1054,0.1043,0.1069,0,0,0,0.0926,0.0925,0.093,0.0934,0.0952,0.0983,0.0991,0.1005,0.1013,0.1031,0.1033,0.1054,0.1054,0.1043,0.1069,0.1202,0,0,0,0.0912,0.0906,0.0929,0.0926,0.0952,0.0967,0.0991,0.1003,0.1015,0.1032,0.1054,0.1054,0.1044,0.1069,0.12,0.1388,0.1414,0,0,0.0895,0.0904,0.0903,0.0924,0.0928,0.0962,0.0973,0.0999,0.1016,0.1042,0.1043,0.1043,0.1069,0.1202,0.1377,0.1405,0,0,0,0.0891,0.0888,0.0894,0.0903,0.0925,0.0958,0.098,0.0996,0.1021,0.1023,0.1042,0.106,0.1145,0.1252,0.1273,0.1053,0.1053,0.1053,0.1053,0.0843,0.0862,0.0865,0.0892,0.0907,0.095,0.098,0.1008,0.101,0.1018,0.1049,0.114,0.1249,0.1269,0.1031,0.1031,0.1031,0.1031,0.1031,0.0824,0.0839,0.0858,0.087,0.0911,0.093,0.0988,0.1003,0.1089,0.1042,0.1125,0.123,0.1292,0.103,0.103,0.103,0.103,0.103,0.103,0.0811,0.0826,0.0833,0.0867,0.0902,0.0946,0.1051,0.1079,0.1113,0.1162,0.1383,0.1385,0.1199,0.1241,0.1241,0.1242,0.1243,0.1243,0.1244,0.081,0.0821,0.0847,0.0879,0.0913,0.0997,0.1113,0.1214,0.1388,0.1426,0.1429,0.1214,0.1207,0.1214,0.1254,0.1252,0.1251,0.125,0.1249,0.082,0.0833,0.0872,0.0905,0.0995,0.1115,0.1243,0.1533,0.1653,0.1782,0.1609,0.1597,0.1652,0.1636,0.1655,0.1807,0.1807,0.1807,0.1807,0.0835,0.0842,0.0901,0.0957,0.1052,0.1169,0.1443,0.1627,0.1782,0.1798,0.1796,0.1723,0.1704,0.1755,0.1736,0.1753,0.1931,0.193,0.193,0.0854,0.0873,0.0912,0.0961,0.1059,0.1244,0.1489,0.162,0.1737,0.1914,0.161,0.1856,0.1743,0.1715,0.1787,0.1759,0.1784,0,0]},{"header":{"parameterUnit":"m.s-1","parameterCategory":2,"la1":30.2992,"la2":30.254,"lo1":-89.0895,"lo2":-89.0443,"dy":0.0025,"dx":0.0025,"nx":19,"ny":19,"refTime":"2026-05-17T09:00:00:Z","depth":"2","parameterNumber":3,"parameterNumberName":"V-component_of_CURRENTS"},"data":[0,0,0,-0.0245,-0.0246,-0.0287,-0.0287,-0.0349,-0.035,0,0,0,0,0,0,0,0,0,0,0,-0.023,-0.023,-0.0245,-0.0246,-0.0287,-0.0287,-0.0349,-0.035,0,0,0,0,0,0,0,0,0,0,0,-0.023,-0.023,-0.023,-0.0246,-0.0287,-0.0287,-0.0349,-0.0317,0,0,0,0,0,0,0,0,0,0,-0.0275,-0.0257,-0.023,-0.023,-0.0246,-0.0287,-0.0287,-0.0315,-0.0319,-0.0332,0,-0.0336,0,-0.0343,-0.0354,-0.0354,0,0,0,-0.025,-0.0254,-0.0266,-0.023,-0.0246,-0.0287,-0.0269,-0.0317,-0.0321,-0.0337,-0.0336,-0.0339,-0.0344,-0.0354,-0.0354,-0.0399,-0.0399,0,0,-0.0247,-0.0238,-0.0263,-0.0269,-0.0254,-0.0268,-0.0271,-0.0319,-0.0322,-0.0337,-0.034,-0.0345,-0.0355,-0.0355,-0.0399,-0.0399,0,0,0,-0.0238,-0.0236,-0.0247,-0.0266,-0.0273,-0.0269,-0.0272,-0.032,-0.0324,-0.0341,-0.0346,-0.0355,-0.0356,-0.0399,-0.0399,-0.0374,0,0,0,-0.0237,-0.0231,-0.0246,-0.0241,-0.0272,-0.0295,-0.0272,-0.032,-0.0326,-0.0346,-0.0355,-0.0356,-0.0399,-0.0399,-0.0375,-0.0307,0,0,0,-0.0228,-0.023,-0.0234,-0.0241,-0.0257,-0.0295,-0.0301,-0.0322,-0.0329,-0.0354,-0.0356,-0.0399,-0.0399,-0.0375,-0.031,-0.0198,0,0,0,-0.0219,-0.0222,-0.0234,-0.0239,-0.0256,-0.0279,-0.0301,-0.0321,-0.034,-0.0355,-0.0399,-0.0399,-0.0375,-0.0311,-0.0201,-0.0146,-0.0126,0,0,-0.0217,-0.0222,-0.0225,-0.0236,-0.0249,-0.0273,-0.0293,-0.0326,-0.0348,-0.0385,-0.0386,-0.0374,-0.031,-0.0199,-0.0153,-0.0132,0,0,0,-0.0221,-0.0222,-0.0228,-0.0239,-0.0258,-0.0263,-0.0308,-0.0329,-0.0359,-0.0359,-0.0384,-0.0343,-0.0273,-0.0249,-0.0233,-0.04,-0.04,-0.04,-0.04,-0.0202,-0.0214,-0.0216,-0.0231,-0.0241,-0.0268,-0.0274,-0.031,-0.0355,-0.0365,-0.0332,-0.0237,-0.0217,-0.0202,-0.0373,-0.0373,-0.0373,-0.0373,-0.0373,-0.0189,-0.0182,-0.0197,-0.02,-0.0207,-0.022,-0.0246,-0.027,-0.0248,-0.032,-0.0255,-0.0236,-0.0183,-0.0371,-0.0372,-0.0372,-0.0372,-0.0372,-0.0372,-0.0167,-0.0162,-0.017,-0.0164,-0.0147,-0.016,-0.0059,-0.0116,-0.017,-0.0133,-0.0048,-0.0048,-0.0157,-0.0085,-0.0084,-0.0083,-0.0082,-0.0082,-0.0081,-0.0131,-0.0139,-0.0117,-0.0113,-0.0076,0.0008,0.0067,0.0134,0.0127,0.0039,0.0039,-0.0137,-0.0147,-0.0138,-0.007,-0.0072,-0.0073,-0.0074,-0.0075,-0.0088,-0.0092,-0.0052,-0.0017,0.01,0.0266,0.0314,0.0452,0.0479,0.0492,0.0142,0.0133,0.016,0.0145,0.0162,0.0305,0.0305,0.0305,0.0305,-0.0046,-0.0052,0.003,0.0123,0.0282,0.04,0.0599,0.0516,0.0413,0.0246,0.0247,0.0134,0.0122,0.0139,0.0124,0.0137,0.0274,0.0273,0.0273,-0.0001,0.0014,0.0098,0.018,0.0367,0.0585,0.0656,0.0457,0.0293,0.0262,0.0141,0.0323,0.0155,0.0136,0.0157,0.0136,0.0155,0,0]}],[{"header":{"parameterUnit":"m.s-1","parameterCategory":2,"la1":30.2992,"la2":30.254,"lo1":-89.0895,"lo2":-89.0443,"dy":0.0025,"dx":0.0025,"nx":19,"ny":19,"refTime":"2026-05-17T09:00:00:Z","depth":"4","parameterNumber":2,"parameterNumberName":"U-component_of_CURRENTS"},"data":[0,0,0,0.0861,0.0863,0.0971,0.0971,0.109,0.1091,0,0,0,0,0,0,0,0,0,0,0,0.0836,0.0837,0.0861,0.0863,0.097,0.0971,0.109,0.1091,0,0,0,0,0,0,0,0,0,0,0,0.0836,0.0837,0.0838,0.0863,0.097,0.0971,0.1089,0.1015,0,0,0,0,0,0,0,0,0,0,0.0914,0.0891,0.0837,0.0838,0.0864,0.097,0.0971,0.1012,0.102,0.1033,0,0.1057,0,0.1067,0.1097,0.1098,0,0,0,0.0872,0.0885,0.091,0.0838,0.0865,0.097,0.0925,0.1017,0.1025,0.1043,0.1059,0.1063,0.1069,0.1098,0.1099,0.124,0.1241,0,0,0.0866,0.0859,0.0904,0.0916,0.0903,0.0921,0.0928,0.1022,0.1037,0.1059,0.1066,0.1071,0.1099,0.1099,0.1239,0.124,0,0,0,0.0843,0.0855,0.0878,0.0911,0.0927,0.0924,0.0932,0.1034,0.1041,0.1067,0.1073,0.1099,0.11,0.1238,0.1239,0.1322,0,0,0,0.084,0.084,0.0876,0.0873,0.0925,0.0984,0.0941,0.1035,0.1045,0.1072,0.1099,0.1101,0.1237,0.1239,0.1318,0.1246,0,0,0,0.083,0.0839,0.0854,0.0872,0.0913,0.0982,0.0996,0.1038,0.1048,0.1098,0.1102,0.1237,0.1239,0.1314,0.1243,0.1344,0,0,0,0.0815,0.0838,0.0854,0.0887,0.0911,0.0974,0.0995,0.1063,0.1109,0.11,0.1237,0.1239,0.1313,0.1242,0.1341,0.1142,0,0,0,0.0829,0.084,0.0858,0.0874,0.0933,0.0959,0.1063,0.114,0.1142,0.1204,0.1208,0.1319,0.1243,0.1344,0.1256,0,0,0,0,0.0851,0.0871,0.0893,0.0933,0.0975,0.1057,0.1129,0.1182,0.1278,0.1177,0.1335,0.1282,0.1345,0.1221,0.1249,0.1248,0.1248,0.1248,0.1248,0.0856,0.0881,0.0923,0.0978,0.1029,0.1144,0.1222,0.1304,0.1327,0.1393,0.1367,0.1501,0.1377,0.1441,0.1442,0.1442,0.1443,0.1443,0.1443,0.0854,0.0874,0.0936,0.0991,0.1086,0.1172,0.1316,0.138,0.1488,0.1457,0.1521,0.1333,0.1452,0.145,0.1449,0.1448,0.1447,0.1446,0.1446,0.0829,0.0847,0.0896,0.0977,0.1078,0.1195,0.13,0.1414,0.1495,0.1543,0.1464,0.1544,0.152,0.1626,0.1626,0.1626,0.1626,0.1626,0.1626,0.0777,0.0828,0.0878,0.0967,0.1033,0.1127,0.1288,0.1351,0.1474,0.1454,0.1558,0.1562,0.1556,0.153,0.1629,0.1629,0.1628,0.1628,0.1628,0.075,0.0784,0.0843,0.091,0.1029,0.1077,0.1234,0.1307,0.1394,0.1392,0.1455,0.1462,0.1401,0.1399,0.1365,0.1419,0.1417,0.1415,0,0.0732,0.0747,0.0839,0.0919,0.0985,0.1064,0.11,0.1171,0.1276,0.1266,0.1406,0.1477,0.1481,0.141,0.1404,0.1363,0,0,0,0.0722,0.0754,0.0813,0.0898,0.097,0.1018,0.1104,0.1107,0.1263,0.1219,0.1359,0.1373,0.1452,0.1638,0.1562,0.1554,0.1508,0,0]},{"header":{"parameterUnit":"m.s-1","parameterCategory":2,"la1":30.2992,"la2":30.254,"lo1":-89.0895,"lo2":-89.0443,"dy":0.0025,"dx":0.0025,"nx":19,"ny":19,"refTime":"2026-05-17T09:00:00:Z","depth":"4","parameterNumber":3,"parameterNumberName":"V-component_of_CURRENTS"},"data":[0,0,0,-0.0013,-0.0014,-0.0071,-0.0071,-0.0127,-0.0127,0,0,0,0,0,0,0,0,0,0,0,0.0004,0.0004,-0.0013,-0.0014,-0.0071,-0.0071,-0.0127,-0.0127,0,0,0,0,0,0,0,0,0,0,0,0.0005,0.0004,0.0004,-0.0014,-0.0071,-0.0071,-0.0127,-0.009,0,0,0,0,0,0,0,0,0,0,-0.0038,-0.0018,0.0004,0.0004,-0.0014,-0.0071,-0.0071,-0.0089,-0.0093,-0.0093,0,-0.0099,0,-0.0109,-0.013,-0.013,0,0,0,-0.0024,-0.0015,-0.0031,0.0004,-0.0015,-0.0071,-0.0048,-0.0091,-0.0095,-0.0098,-0.01,-0.0102,-0.011,-0.013,-0.013,-0.0066,-0.0065,0,0,-0.002,-0.0006,-0.0028,-0.0033,-0.0025,-0.0046,-0.005,-0.0094,-0.0095,-0.01,-0.0103,-0.011,-0.013,-0.0131,-0.0067,-0.0066,0,0,0,-0.0005,-0.0004,-0.002,-0.0031,-0.004,-0.0047,-0.0052,-0.0094,-0.0099,-0.0104,-0.0111,-0.013,-0.0131,-0.0068,-0.0067,-0.0029,0,0,0,-0.0003,0.0005,-0.0018,-0.0011,-0.0039,-0.0069,-0.005,-0.0096,-0.0101,-0.0111,-0.013,-0.0131,-0.007,-0.0068,-0.0033,-0.0076,0,0,0,0.0006,0.0007,0.0001,-0.001,-0.003,-0.0068,-0.0077,-0.0098,-0.0105,-0.013,-0.0131,-0.007,-0.0068,-0.0036,-0.0078,-0.0116,0,0,0,0.002,0.0032,0.0001,0.0019,-0.003,0.0004,-0.0077,-0.0082,-0.0096,-0.0131,-0.0069,-0.0067,-0.0037,-0.008,-0.0117,-0.0111,0,0,0,0.0048,0.0036,0.005,0.0021,0.0064,0.0011,0.0065,-0.0012,-0.0058,-0.0058,-0.0057,-0.0032,-0.0078,-0.0117,0.0027,0,0,0,0,0.0068,0.0076,0.0084,0.0097,0.0109,0.0116,0.0078,0.0062,0.0024,-0.0055,0.0005,-0.0026,-0.0052,-0.0046,-0.0056,-0.0056,-0.0056,-0.0057,-0.0057,0.0111,0.0122,0.0158,0.0177,0.02,0.0196,0.0181,0.0155,0.0115,0.0112,0.0035,0.0065,0.0083,0.01,0.0101,0.0101,0.0101,0.0101,0.0101,0.0155,0.0165,0.0201,0.0215,0.0239,0.0259,0.0269,0.0222,0.0151,0.0138,0.0112,0.0034,0.0106,0.0105,0.0104,0.0104,0.0103,0.0103,0.0103,0.0153,0.0162,0.0165,0.0206,0.0223,0.0236,0.021,0.0184,0.014,0.0101,0.0049,0.0059,0.0016,0.0066,0.0066,0.0065,0.0065,0.0065,0.0065,0.0127,0.0153,0.015,0.0182,0.0176,0.016,0.0137,0.0089,0.0053,0.0048,0.0061,0.0051,0.0052,0.0013,0.006,0.0061,0.0062,0.0062,0.0062,0.0107,0.0102,0.0114,0.0108,0.011,0.0113,0.0103,0.0043,-0.0019,-0.0052,0.003,0.0033,-0.0009,-0.0008,-0.0052,-0.0022,-0.0022,-0.0021,0,0.0079,0.0086,0.0083,0.008,0.007,0.0088,0.0041,-0.0005,-0.0036,-0.0009,-0.0056,0.0037,0.004,-0.0005,-0.0004,-0.0054,0,0,0,0.007,0.0071,0.0053,0.0052,0.0046,0.0036,0.0023,0.0005,0.0012,-0.0052,-0.0018,-0.0019,0.0001,0.0046,-0.0013,-0.0012,-0.0081,0,0]}]]